Location: Malvern Link
(52.1333°N, 2.3000°W)
Time: 07:37:55
(UTC+00:00)

Cosmos 1844 Rocket - Pass Details

Date: 18 September 2020
Orbit: 823 x 846 km, 71.0° (Epoch: 22 October)

Event Time Altitude Azimuth Distance (km) Brightness Sun altitude
Rises 21:22:55 0° 225° (SW) 3,352 5.8 -26.8°
Reaches altitude 10° 21:25:23 10° 230° (SW) 2,424 5.1 -27.0°
Maximum altitude 21:30:50 54° 308° (NW) 1,004 3.3 -27.6°
Drops below altitude 10° 21:36:20 10° 25° (NNE) 2,450 5.3 -28.2°
Sets 21:38:51 0° 30° (NNE) 3,390 6.1 -28.5°
